Regional Weather Roundup
Issued by NWS

Home | Current Version | Previous Version | Text Only | Print | Product List | Glossary On
Versions: 1 2 3 4 5 6 7 8 9 10 11 12 13 14 15 16 17 18 19 20 21 22 23 24 25 26 27
000
ASUS44 KBMX 230610
RWRAL

ALABAMA REGIONAL WEATHER ROUNDUP
NATIONAL WEATHER SERVICE BIRMINGHAM AL
100 AM CDT MON OCT 23 2017

NOTE: "FAIR" INDICATES FEW OR NO CLOUDS BELOW 12,000 FEET
WITH NO SIGNIFICANT WEATHER AND/OR OBSTRUCTIONS TO VISIBILITY.

THE REMARK "TC" DENOTES TEMPERATURE IN DEGREES CELSIUS.

ALZ001>011-014-016>018-020-230700-
NORTH ALABAMA

CITY           SKY/WX    TMP DP  RH WIND       PRES   REMARKS
MUSCLE SHOALS  HVY RAIN  64  61  90 W14G22    29.93F
6HR MIN TEMP:  64; 6HR MAX TEMP:  72; 6HR PCP:  0.62;

HUNTSVILLE     LGT RAIN  70  69  97 SE13G21   29.94R
6HR MIN TEMP:  70; 6HR MAX TEMP:  74; 6HR PCP:  0.08;

DECATUR        HVY RAIN  69  69 100 SE17G25   29.93F FOG
6HR MIN TEMP:  69; 6HR MAX TEMP:  73; 6HR PCP:  0.10;

HALEYVILLE     LGT RAIN  68  68 100 S14G25    29.92F
6HR MIN TEMP:  68; 6HR MAX TEMP:  69; 6HR PCP:  0.38;

GADSDEN        LGT RAIN  69  68  96 E8G17       N/A
6HR MIN TEMP:  68; 6HR MAX TEMP:  74;

$$

ALZ012-013-022-023-030>036-040>044-230700-
WEST CENTRAL ALABAMA

CITY           SKY/WX    TMP DP  RH WIND       PRES   REMARKS
TUSCALOOSA     RAIN      69  69 100 SW9       29.93F FOG
6HR MIN TEMP:  69; 6HR MAX TEMP:  72; 6HR PCP:  0.45;

DEMOPOLIS      DRIZZLE   68  67  94 SW5       29.96S
6HR MIN TEMP:  67; 6HR MAX TEMP:  69;

$$

ALZ015-024>026-033>036-041>044-230700-
CENTRAL ALABAMA

CITY           SKY/WX    TMP DP  RH WIND       PRES   REMARKS
BIRMINGHAM     CLOUDY    71  67  87 SE17G26   29.94F
6HR MIN TEMP:  70; 6HR MAX TEMP:  73; 6HR PCP:  0.42;

MONTGOMERY     LGT RAIN  72  67  84 SE17G29   29.95F
6HR MIN TEMP:  72; 6HR MAX TEMP:  77; 6HR PCP:  1.98;

SHELBY CO ARPT CLOUDY    71  69  93 SE10G22   29.94F
6HR MIN TEMP:  70; 6HR MAX TEMP:  72; 6HR PCP:  0.56;

MAXWELL AFB    MOCLDY    71  69  95 SE22G29   29.94F
6HR MIN TEMP:  71; 6HR MAX TEMP:  74; 6HR PCP:  1.53;

GREENVILLE     LGT RAIN  71  67  87 SE7G16    29.96S
6HR MIN TEMP:  71; 6HR MAX TEMP:  72; 6HR PCP:  3.57;

SELMA          CLOUDY    72  68  88 SE10G16   29.93S
PRATTVILLE     DRIZZLE   70  69  99 SE8       29.95F
6HR MIN TEMP:  69; 6HR MAX TEMP:  72; 6HR PCP:  1.62;

BESSEMER       CLOUDY    69  68  96 SE9G21    29.94F
6HR MIN TEMP:  69; 6HR MAX TEMP:  71; 6HR PCP:  0.33;

TALLADEGA      CLOUDY    70  68  94 E6        29.98F
6HR MIN TEMP:  69; 6HR MAX TEMP:  75;

PELL CITY      CLOUDY    70  70 100 SE6       29.97F
MARION         CLOUDY    69  69 100 SW5       29.95R
6HR MIN TEMP:  69; 6HR MAX TEMP:  70; 6HR PCP:  0.21;

SYLACAUGA      CLOUDY    71  71 100 SE10G17   29.97F
6HR MIN TEMP:  69; 6HR MAX TEMP:  74; 6HR PCP:  0.57;

$$

ALZ019-021-028-029-037-038-045>048-230700-
EAST CENTRAL ALABAMA

CITY           SKY/WX    TMP DP  RH WIND       PRES   REMARKS
ANNISTON       LGT RAIN  70  67  90 E8        29.98F
6HR MIN TEMP:  69; 6HR MAX TEMP:  74; 6HR PCP:  0.17;

ALEXANDER CITY LGT RAIN  69  68  96 SE8G16    30.00R
6HR MIN TEMP:  69; 6HR MAX TEMP:  73; 6HR PCP:  0.49;

AUBURN         RAIN      69  68  96 SE8       30.03F
6HR MIN TEMP:  69; 6HR MAX TEMP:  75; 6HR PCP:  0.15;

$$

ALZ051>064-230700-
SOUTHWEST ALABAMA

CITY           SKY/WX    TMP DP  RH WIND       PRES   REMARKS
MOBILE         CLOUDY    68  67  96 CALM      29.99F FOG
6HR MIN TEMP:  68; 6HR MAX TEMP:  69; 6HR PCP: TRACE;

BROOKLEY FIELD CLOUDY    70  70 100 W5        30.00R FOG
6HR MIN TEMP:  70; 6HR MAX TEMP:  72; 6HR PCP:  0.01;

EVERGREEN      CLOUDY    70  68  93 S6        29.97R
6HR MIN TEMP:  69; 6HR MAX TEMP:  70; 6HR PCP:  1.46;

$$

ALZ049-050-065>069-230700-
SOUTHEAST ALABAMA

CITY           SKY/WX    TMP DP  RH WIND       PRES   REMARKS
DOTHAN         HVY RAIN  72  72 100 CALM      30.05F FOG
6HR MIN TEMP:  72; 6HR MAX TEMP:  79; 6HR PCP:  0.27;

OZARK          LGT RAIN  70  68  94 SE5       30.01F
6HR MIN TEMP:  70; 6HR MAX TEMP:  77; 6HR PCP:  0.65;

TROY           LGT RAIN  69  69 100 S13G21    30.02S
6HR MIN TEMP:  69; 6HR MAX TEMP:  73; 6HR PCP:  0.75;

EUFAULA        LGT RAIN  73  71  93 SE5       30.01F
6HR MIN TEMP:  73; 6HR MAX TEMP:  78;

$$




USA.gov is the U.S. government's official web portal to all federal, state and local government web resources and services.